Regional Weather Roundup
Issued by NWS

Home | Current Version | Previous Version | Text Only | Print | Product List | Glossary Off
Versions: 1 2 3 4 5 6 7 8 9 10 11 12 13 14 15 16 17 18 19 20 21 22 23 24 25 26 27 28 29 30 31 32 33 34 35 36 37 38 39 40 41 42 43 44 45 46 47 48 49 50

000
ASUS43 KDTX 261501
RWRMI
MICHIGAN HOURLY REGIONAL WEATHER ROUNDUP
NATIONAL WEATHER SERVICE DETROIT/PONTIAC MI
1100 AM EDT THU MAR 26 2015

NOTE: "FAIR" INDICATES FEW OR NO CLOUDS BELOW 12,000 FEET WITH NO
SIGNIFICANT WEATHER AND/OR OBSTRUCTION TO VISIBILITY.

MIZ047>049-052>055-059>063-066>070-074>076-081>083-261600-
SOUTHEAST LOWER MICHIGAN

CITY           SKY/WX    TMP DP  RH WIND       PRES   REMARKS
ADRIAN         CLOUDY    38  33  82 N7        29.89F WCI  33
ALMA           CLOUDY    39  29  68 W10       29.89S WCI  32
ANN ARBOR      CLOUDY    39  31  72 NW9       29.88F WCI  33
BAD AXE        CLOUDY    38  30  72 W12G17    29.85F WCI  30
CARO           CLOUDY    39  31  73 W8        29.86F WCI  34
DETROIT CITY   CLOUDY    40  35  83 W6        29.88S HAZE
DETROIT        LGT RAIN  40  36  86 W7        29.88F FOG
FLINT          CLOUDY    41  29  62 W9        29.88F
GROSSE ILE     CLOUDY    34  32  93 W5        29.87F FOG     WCI  30
HILLSDALE      CLOUDY    38  30  72 NW12      29.88F WCI  30
HOWELL         CLOUDY    38  31  76 NW8       29.87F WCI  32

CITY           SKY/WX    TMP DP  RH WIND       PRES   REMARKS
JACKSON        CLOUDY    38  28  67 NW12      29.88F WCI  30
LAMBERTVILLE   LGT SNOW  36  32  87 CALM      29.90S VSB 1
LANSING        CLOUDY    38  27  64 W13       29.90F WCI  30
LAPEER         CLOUDY    38  29  69 NW7       29.86F WCI  33
MASON          CLOUDY    38  28  66 NW9       29.88F WCI  32
MONROE         CLOUDY    34  34 100 CALM      29.87F FOG
MT. CLEMENS    CLOUDY    39  34  80 S6        29.84F HAZE
PONTIAC        CLOUDY    38  29  70 W8        29.85F WCI  32
PORT HOPE        N/A     39  30  70 W9        29.83S WCI  33
PORT HURON     CLOUDY    39  32  75 SW6       29.86F WCI  35
TRI CITIES     CLOUDY    40  29  64 W13       29.88S WCI  32
TROY           CLOUDY    40  32  75 CALM      29.88F
SAGINAW HB     CLOUDY    39  30  70 W14       29.87F WCI  31
$$
MIZ043>046-050>051-056>058-064>065-071>073-077>080-261600-
SOUTHWEST LOWER MICHIGAN

CITY           SKY/WX    TMP DP  RH WIND       PRES   REMARKS
BATTLE CREEK   CLOUDY    38  26  62 NW13      29.90F WCI  30
BENTON HARBOR  CLOUDY    36  27  69 NW7       29.95S WCI  30
BIG RAPIDS     CLOUDY    37  25  63 NW7       29.87S WCI  31
COLDWATER      CLOUDY    37  28  69 NW10      29.90F WCI  30
FREMONT        CLOUDY    37  24  59 NW10      29.90S WCI  29
HOLLAND        CLOUDY    39  26  59 W8        29.93F WCI  33
GRAND RAPIDS   CLOUDY    38  25  59 NW7       29.90F WCI  33
IONIA          CLOUDY    39  28  62 W12       29.88F WCI  32
KALAMAZOO      CLOUDY    39  24  55 NW16G24   29.91F WCI  30
LUDINGTON      CLOUDY    37  28  68 W10       29.91S WCI  30
MARSHALL       CLOUDY    37  27  68 NW9       29.89F WCI  30
MOUNT PLEASANT CLOUDY    37  28  68 W7        29.87S WCI  32
MUSKEGON       CLOUDY    39  24  55 NW10G21   29.92S WCI  32
SOUTH HAVEN    CLOUDY    37  28  70 NW8       29.94F WCI  31
$$
MIZ016>042-261600-
NORTHERN LOWER MICHIGAN

CITY           SKY/WX    TMP DP  RH WIND       PRES   REMARKS
ALPENA         CLOUDY    36  27  69 W6        29.83S WCI  31
BEAVER ISLAND  LGT SNOW  32  29  88 W10G17    29.84R WCI  24
BELLAIRE       CLOUDY    35  27  70 W5        29.87S WCI  31
CADILLAC       CLOUDY    36  25  64 W9        29.84S WCI  29
CHARLEVOIX     FLURRIES  34  29  81 W14       29.88R WCI  24
FRANKFORT      CLOUDY    38  26  64 NW9       29.88F WCI  31
GAYLORD        CLOUDY    32  26  78 W6        29.81S WCI  26
GRAYLING       CLOUDY    34  24  68 W13       29.84S WCI  25
HARBOR SPRINGS LGT SNOW  33  29  85 W9        29.83S WCI  25
HOUGHTON LAKE  CLOUDY    34  24  67 W10       29.84S WCI  26
MANISTEE       CLOUDY    36  25  64 W14       29.90S WCI  27
OSCODA         CLOUDY    37  30  76 W7        29.84S WCI  32
PELLSTON       FLURRIES  35  27  72 W8        29.83R WCI  29
ROGERS CITY    CLOUDY    36  32  86 W7        29.82S WCI  30
TRAVERSE CITY  CLOUDY    36  26  67 W13       29.86R WCI  27
$$
MIZ007>008-015-261600-
EASTERN UPPER MICHIGAN

CITY           SKY/WX    TMP DP  RH WIND       PRES   REMARKS
KINROSS        CLOUDY    34  32  93 W7        29.79R WCI  28
MACKINAC ISLAN LGT SNOW  34  28  81 W12G17    29.80S WCI  25
NEWBERRY       FLURRIES  30  28  93 NW8       29.80R WCI  23
S. S. MARIE    LGT SNOW  32  30  92 W7        29.78R FOG     WCI  26
$$
MIZ004>006-011>014-085-261600-
CENTRAL UPPER MICHIGAN

CITY           SKY/WX    TMP DP  RH WIND       PRES   REMARKS
MANISTIQUE     CLOUDY    28  24  86 NW18G25   29.86R WCI  15
ESCANABA       CLOUDY    28  18  64 N13       29.91R WCI  18
MENOMINEE      CLOUDY    34  18  51 NW9G21    29.91R WCI  26
SAWYER-GWINN   CLOUDY    21  14  73 N16G28    29.90R WCI   7
$$
MIZ001>003-009>011-084-261600-
WESTERN UPPER MICHIGAN

CITY           SKY/WX    TMP DP  RH WIND       PRES   REMARKS
IRON MOUNTAIN  FLURRIES  25  17  72 N15G24    29.91R WCI  13
HOUGHTON       LGT SNOW  16  10  77 N16G23    29.99R WCI   1
COPPER HARBOR    N/A     18  13  80 NE23G31   29.99R WCI   0
IRONWOOD       CLOUDY    19  16  86 N7        30.01R VSB 1   WCI  10
$$

ABBREVIATIONS USED IN REMARKS
   TC - TEMPERATURE IN CELSIUS
  WCI - WIND CHILL INDEX
   HX - HEAT INDEX
  VSB - VISIBILITY




USA.gov is the U.S. government's official web portal to all federal, state and local government web resources and services.